SCP
1 1 1 1 1 1 1 1 1 1 1 1 1 2 2 2 2 2 2 1 1 1 1 1 1 1 1 1 1 1 1 1 1 1 1 1 1 0 0 0 0 0 0
1 1 1 1 1 1 1 1 1 1 1 1 1 2 2 2 2 2 2 2 1 1 1 1 1 1 1 1 1 1 1 1 1 1 1 1 1 1 0 0 0 0 0
1 1 1 1 1 1 1 1 1 1 1 1 1 1 2 2 2 2 2 2 1 1 1 1 1 1 1 1 1 1 1 1 1 1 1 1 1 1 1 1 1 1 1
1 1 1 1 1 1 1 1 1 1 1 1 1 1 1 1 1 1 2 2 2 1 1 1 1 1 1 1 1 1 1 1 1 1 1 1 1 1 1 1 1 1 1
0 1 1 1 1 1 1 1 1 1 1 1 1 1 1 1 1 2 2 2 2 2 1 1 1 1 1 2 2 1 1 1 1 1 1 1 1 1 1 1 1 1 1
0 0 0 0 0 1 1 1 1 1 1 1 1 1 1 1 1 2 1 1 1 1 1 1 1 1 1 1 2 2 2 1 1 1 1 1 1 1 1 1 1 1 1
0 0 0 0 0 0 1 1 1 1 1 1 1 1 1 1 1 1 1 1 1 1 1 1 1 1 1 1 1 2 2 2 1 1 1 1 1 1 1 1 1 1 1
0 0 0 0 0 0 0 0 1 1 1 1 1 1 1 1 1 1 1 1 1 1 1 1 1 1 1 1 1 1 1 1 1 1 1 1 1 1 1 1 1 1 1
0 0 0 0 1 1 1 1 0 0 0 1 1 1 1 1 2 2 1 1 1 1 1 1 1 1 1 1 1 1 1 1 1 1 1 1 1 1 1 1 1 1 1
0 0 0 0 0 1 1 1 1 1 0 0 1 1 1 1 2 2 2 1 1 1 1 1 1 1 1 1 1 1 1 1 1 1 1 1 1 1 1 1 1 1 1
0 0 0 0 0 1 1 1 1 1 1 1 1 1 1 1 1 2 2 2 1 1 1 1 1 1 1 1 1 1 1 1 1 1 1 1 1 1 2 2 1 1 1
0 0 0 0 0 0 1 1 1 1 1 1 1 1 1 1 1 1 2 2 1 1 1 1 1 1 1 1 1 0 0 0 1 1 1 1 1 1 2 2 1 1 1
0 0 0 0 0 0 0 1 1 1 1 1 1 1 1 1 1 0 1 1 1 1 1 1 1 1 1 1 0 0 0 0 1 1 1 1 1 1 1 1 1 1 1
0 0 0 0 0 0 0 1 1 1 1 1 1 1 1 1 1 1 1 1 1 1 1 1 1 1 1 1 0 0 0 0 0 1 1 1 1 1 1 1 1 1 1
0 0 0 0 0 0 0 0 1 1 1 1 1 1 1 1 1 1 1 1 1 1 1 1 0 1 1 1 0 0 0 0 0 1 1 1 0 0 1 1 1 1 1
0 0 0 0 0 0 0 0 0 1 1 1 1 1 1 1 1 1 1 1 1 1 0 0 0 0 0 0 0 0 0 0 0 0 0 0 0 0 0 0 0 0 0
0 0 0 0 0 0 0 0 0 0 0 0 1 1 1 1 1 1 1 1 1 0 0 0 0 0 0 0 0 0 0 0 0 0 0 0 0 0 0 0 0 0 0
0 0 0 0 0 0 0 0 0 0 0 0 0 0 1 1 1 1 1 1 1 1 0 0 0 0 0 0 0 0 0 0 0 0 0 0 0 0 0 0 0 0 0
0 0 0 0 0 0 0 0 0 0 0 0 0 0 0 1 1 1 1 1 1 1 0 0 0 0 0 0 0 0 0 0 0 0 0 0 0 0 0 0 0 0 0
0 0 0 0 0 0 0 0 0 0 0 0 0 0 0 0 0 1 1 1 1 1 0 0 0 0 0 0 0 0 0 0 0 0 0 0 0 0 0 0 0 0 0
0 0 0 0 0 0 0 0 0 0 0 0 0 0 0 0 0 0 0 0 0 0 0 0 0 0 0 0 0 0 0 0 0 0 0 0 0 0 0 0 0 0 0
0 0 0 0 0 0 0 0 0 0 0 0 0 0 0 0 0 0 0 0 0 0 0 0 0 0 0 0 0 0 0 0 0 0 0 0 0 0 0 0 0 0 0
0 0 0 0 0 0 0 0 0 0 0 0 0 0 0 0 0 0 0 0 0 0 0 0 0 0 0 0 0 0 0 0 0 0 0 0 0 0 0 0 0 0 0
0 0 0 0 0 0 0 0 0 0 0 0 0 0 0 0 0 0 0 0 0 0 0 0 0 0 0 0 0 0 0 0 0 0 0 0 0 0 0 0 0 0 0
0 0 0 0 0 0 0 0 0 0 0 0 0 0 0 0 0 0 0 0 0 0 0 0 0 0 0 0 0 0 0 0 0 0 0 0 0 0 0 0 0 0 0
0 0 0 0 0 0 0 0 0 0 0 0 0 0 0 0 0 0 0 0 0 0 0 0 0 0 0 0 0 0 0 0 0 0 0 0 0 0 0 0 0 0 0
Wind_Speed
4 4 3 3 4 4 4 5 5 6 7 7 7 8 9 9 9 8 5 8 11 13 15 15 15 15 15 16 16 15 15 15 15 15 14 14 13 13 13 12 12 11 10
4 4 4 4 4 4 5 5 6 6 6 6 8 9 9 9 9 10 8 7 11 13 15 16 16 16 16 16 16 16 16 16 16 16 16 16 15 15 14 14 13 13 12
6 5 4 4 5 5 6 5 6 6 6 6 8 9 8 9 9 10 9 7 7 11 13 15 15 15 16 16 16 16 16 16 16 16 17 17 17 16 15 15 14 14 14
7 5 4 5 6 5 5 5 5 6 6 6 7 7 7 7 10 10 9 8 7 7 10 13 14 14 15 15 16 17 16 15 15 16 16 17 17 17 17 16 16 15 15
7 5 4 5 6 5 5 5 5 6 6 7 7 8 7 7 8 8 9 9 8 7 7 8 11 12 12 14 15 15 15 14 13 14 15 15 16 17 18 18 17 17 17
7 6 4 6 6 5 5 5 7 6 6 7 8 8 7 7 7 7 8 7 7 8 8 7 7 8 11 12 14 14 14 13 13 13 14 15 15 17 18 19 18 18 18
7 6 5 5 5 5 6 7 6 7 6 6 6 6 6 6 6 5 5 5 5 6 6 7 6 5 5 10 11 13 14 14 14 14 14 15 16 16 16 17 18 18 18
7 6 6 5 5 5 6 6 6 5 5 4 5 6 5 5 3 4 4 4 5 4 4 5 5 5 5 4 4 7 11 13 15 15 14 15 16 16 17 18 17 17 18
7 6 6 6 5 5 5 6 6 6 5 5 4 4 5 5 5 4 4 3 3 3 3 3 4 4 5 4 4 5 7 10 13 14 15 15 15 16 16 17 18 16 16
6 6 6 6 5 5 5 5 5 5 5 5 4 4 5 5 6 5 4 4 4 5 5 3 4 4 4 4 5 6 6 9 13 15 16 15 15 15 16 17 17 17 16
5 6 6 5 5 5 5 6 6 5 4 5 4 4 5 5 5 6 7 5 5 4 5 5 4 3 4 4 4 6 7 8 12 15 17 17 16 15 14 16 17 16 16
4 5 5 5 5 5 5 5 5 5 4 5 4 4 4 4 4 5 7 7 6 5 5 4 4 4 3 4 4 7 8 8 11 13 15 15 14 15 14 14 14 14 14
3 5 5 5 5 5 5 5 5 5 5 5 4 4 4 4 4 5 6 7 7 6 5 4 3 3 4 4 5 8 8 9 11 13 15 14 13 12 12 13 14 14 14
3 4 5 5 5 5 5 5 4 4 4 5 5 5 4 4 4 4 5 6 6 6 5 5 4 3 4 5 7 9 7 9 10 12 13 13 11 10 11 11 13 13 12
3 4 4 5 5 5 5 5 4 4 4 4 5 5 4 4 4 4 4 4 5 6 5 5 4 4 5 6 7 7 8 9 11 11 12 12 11 10 11 11 11 12 12
3 4 4 4 4 4 5 4 4 4 4 4 4 4 4 4 3 3 3 4 4 5 6 5 6 8 8 7 8 8 8 11 10 11 11 12 11 11 11 11 11 12 12
3 4 4 4 4 4 4 4 4 5 5 4 4 4 5 5 4 3 3 4 4 4 7 7 6 8 10 10 9 8 8 8 7 10 11 12 12 11 11 11 11 12 12
4 4 4 4 4 4 4 4 4 4 4 4 4 4 5 4 5 4 4 5 5 5 6 9 8 7 10 10 10 10 8 7 8 10 12 13 13 12 12 12 11 11 12
4 4 4 4 4 4 4 4 4 4 4 4 4 5 5 6 6 5 5 5 5 6 6 7 8 7 7 8 9 9 9 8 8 9 11 12 12 12 13 13 13 11 11
4 4 4 4 4 4 4 4 4 4 4 4 4 5 5 6 6 7 6 6 6 7 7 7 7 7 7 8 8 8 8 8 8 8 9 10 11 13 14 13 13 11 11
4 4 4 4 4 4 4 4 4 5 5 4 4 4 5 6 7 7 6 7 7 6 6 6 7 7 7 7 7 7 9 9 9 6 7 8 8 7 8 10 10 11 12
5 5 5 4 4 3 5 7 6 5 4 5 5 5 5 5 6 8 9 9 9 8 8 7 7 8 9 8 8 8 8 9 8 6 9 10 8 8 7 7 9 11 12
5 5 5 5 5 5 6 7 7 5 5 4 5 5 4 5 7 6 7 9 8 9 10 9 9 9 10 9 10 10 9 10 10 9 9 10 8 9 7 8 12 12 13
5 5 5 5 5 5 6 6 6 6 5 5 5 5 6 6 6 7 7 8 8 7 8 7 8 9 9 9 9 10 11 11 11 8 8 9 8 8 9 8 11 12 13
5 5 5 5 6 5 5 6 6 4 4 5 5 5 6 7 8 10 8 8 9 7 7 9 11 11 13 13 11 8 8 8 9 7 5 7 7 9 9 8 7 10 12
5 5 5 5 6 6 5 6 6 4 5 5 5 5 6 7 9 10 8 8 9 9 9 9 9 9 9 9 10 8 7 7 8 7 4 5 7 7 8 6 6 7 8
Wind_Direction
335 329 324 324 320 320 310 301 292 290 280 275 268 262 257 253 250 245 235 208 223 236 242 244 244 242 240 237 236 235 233 231 231 230 228 227 228 228 228 226 226 228 229
339 329 326 326 324 321 314 303 298 293 285 277 273 268 265 261 256 252 249 225 219 230 240 245 246 246 245 242 239 237 235 232 232 231 230 228 228 228 229 228 228 228 229
345 336 330 328 326 320 313 305 302 295 288 282 276 271 267 263 260 256 251 248 234 224 231 242 246 248 249 248 244 241 238 236 235 232 231 229 228 228 228 229 229 230 231
352 342 336 333 329 321 316 312 307 299 291 287 283 277 270 264 261 260 254 249 247 240 227 232 242 247 251 251 250 246 242 239 237 235 234 232 229 228 228 229 230 231 233
354 347 340 337 332 327 324 317 310 303 296 294 287 279 272 267 263 259 254 249 245 246 247 228 228 240 248 251 252 252 248 244 240 238 237 236 234 232 231 231 231 231 232
356 348 343 342 338 332 329 324 314 307 301 303 294 286 278 270 264 259 259 254 248 246 248 250 238 233 237 248 252 252 253 250 247 243 238 237 237 237 236 235 234 234 234
358 355 349 345 343 335 331 327 319 312 313 316 299 293 280 268 263 267 266 262 260 259 261 259 256 253 239 238 248 252 253 253 248 246 244 240 239 238 238 238 237 237 237
360 356 356 350 348 338 340 338 333 319 315 324 310 299 294 276 264 272 266 265 271 271 274 275 269 261 258 252 251 253 260 259 255 250 248 246 242 241 240 239 239 240 239
1 359 355 351 349 345 340 339 336 329 318 316 315 304 301 300 312 276 281 285 297 293 283 281 287 291 282 271 267 260 263 265 263 259 255 253 251 248 246 244 242 241 240
360 359 354 351 348 345 341 337 338 327 319 315 309 303 296 303 294 295 283 288 302 297 292 290 284 287 292 289 287 298 280 266 266 265 261 257 256 256 253 250 247 243 241
358 358 353 349 346 342 340 337 334 330 322 317 315 310 298 294 287 284 289 300 300 294 298 292 285 289 292 289 292 311 311 288 276 272 268 264 260 259 261 256 251 248 245
344 353 347 345 342 339 336 332 329 327 325 320 316 314 308 302 305 292 285 295 295 296 297 290 287 295 303 297 305 323 314 301 291 281 275 272 269 266 263 263 259 253 250
332 340 340 339 339 335 331 328 326 326 325 321 315 310 303 299 299 295 291 294 295 296 290 283 287 295 305 297 302 319 302 302 299 291 283 276 277 277 274 269 267 262 255
316 324 327 330 331 330 328 326 322 324 319 314 312 311 304 305 304 302 301 300 296 289 282 284 294 301 309 309 322 318 304 312 307 301 297 286 281 279 275 273 270 269 265
306 315 319 323 325 327 326 325 321 324 320 320 318 318 313 311 308 304 301 300 297 297 294 296 307 319 323 316 317 309 306 313 307 300 299 297 286 280 277 271 267 268 269
298 304 311 315 318 322 323 321 316 320 320 321 319 318 313 309 307 308 305 307 299 289 285 305 315 321 321 313 313 305 302 306 299 296 296 295 290 281 277 271 265 264 264
288 294 299 303 309 316 321 318 317 318 315 318 324 321 318 317 314 314 312 306 298 291 285 295 305 313 318 321 319 311 304 297 292 295 295 294 288 286 280 272 268 264 261
277 283 288 291 297 304 310 312 312 313 314 318 323 324 322 320 314 311 310 306 301 298 291 295 302 310 314 319 319 317 314 306 298 299 296 294 288 282 279 273 270 268 264
269 274 279 284 290 296 300 302 306 306 310 313 316 316 317 315 312 314 311 308 306 303 297 294 298 305 306 315 316 316 317 314 308 302 296 291 289 286 281 277 272 269 268
262 267 271 277 284 289 289 292 296 299 304 309 311 310 312 312 312 314 310 310 309 305 302 298 298 303 307 314 314 318 317 318 314 312 308 302 295 288 282 279 272 267 267
256 260 264 270 275 279 286 292 288 291 296 301 303 303 305 308 309 309 309 311 309 303 302 299 298 302 308 316 319 319 313 313 308 312 314 309 306 296 288 279 273 263 262
246 250 255 264 270 273 288 288 288 285 290 292 298 302 303 296 300 300 301 304 304 301 301 298 297 299 304 309 312 311 311 311 308 321 314 304 301 294 292 287 289 287 272
240 246 252 258 264 273 282 282 282 282 283 290 298 303 303 304 303 301 302 300 297 296 294 294 293 296 302 307 307 304 303 301 295 303 304 294 296 292 294 292 293 289 284
239 246 252 256 263 271 281 280 283 276 280 288 293 295 299 303 306 310 305 301 298 297 298 294 293 297 300 303 300 297 296 295 290 288 292 288 299 300 306 299 293 289 287
237 243 250 255 262 269 273 276 280 280 279 285 288 291 296 298 307 310 305 303 303 304 303 300 299 298 299 301 303 299 298 297 297 298 302 291 300 306 300 294 296 299 295
234 239 246 250 256 265 271 272 275 273 279 284 285 285 287 296 308 312 307 305 304 309 312 309 303 300 300 300 301 293 293 293 294 296 308 305 304 313 304 294 302 306 301